User: anonymous   Login
Location: Betz
(49.1556°N, 2.9558°E)
Time: 06:05:18
(UTC+00:00)
Language:

Cosmos 1821 Rocket - Orbit

View from above orbital plane
View from above orbital plane
View from above satellite
View from above satellite

Ground track
Ground track

The orbit data is extracted from the following two-line orbital elements,

1 17526U 87017B   19320.84896418 -.00000050 +00000-0 -65789-4 0  9993
2 17526 082.9002 100.5922 0040475 011.2482 348.9570 13.76870503627552
Epoch (UTC): 16 November 2019 20:22:30
Eccentricity: 0.0040475
inclination: 82.9002°
perigee height: 945 km
apogee height: 1005 km
right ascension of ascending node: 100.5922°
argument of perigee: 11.2482°
revolutions per day: 13.76870503
mean anomaly at epoch: 348.9570°
orbit number at epoch: 62755

The dashed part of the orbit path shows where the satellite is in the earth's shadow,  

DLR